Theta_e
310 310 310 310 310 311 313 313 313 315 315 316 317 316 316 316 317 317 317 318 318 319 318 318 318 319 319 319 320 320 319 318 318 317 318 318 318 317 316 316 316 315 315 315 315 315 316 316 315 315 313 312 311 311 310 310 310 309 308 308 307 307
309 309 310 310 310 309 310 311 312 312 313 313 315 316 316 316 315 315 315 316 316 316 317 318 318 318 318 317 317 317 316 316 316 316 316 316 316 315 315 314 313 313 313 313 313 313 313 313 314 313 313 311 310 310 309 309 309 308 308 307 307 306
309 308 308 308 308 308 309 309 310 311 312 312 313 313 312 313 313 313 314 314 314 314 314 314 314 314 315 315 315 314 314 314 314 314 315 314 313 313 312 312 312 312 312 311 311 311 311 311 311 312 312 311 310 309 309 309 308 307 306 306 306 305
308 308 308 308 309 309 308 308 309 309 310 312 312 312 313 312 312 312 312 312 312 312 312 313 313 313 312 312 312 312 312 312 312 312 312 310 311 311 311 310 310 310 310 310 310 310 310 310 311 311 310 309 309 309 309 309 308 307 306 306 306 306
308 308 308 309 309 309 308 308 309 310 310 310 310 311 312 313 313 312 312 311 311 311 311 311 310 310 310 309 309 309 310 310 310 310 309 309 309 309 309 309 309 309 309 309 309 309 309 309 309 309 309 308 308 307 308 308 307 306 305 305 305 305
306 307 308 308 308 308 308 308 307 308 308 308 308 308 309 309 309 309 309 309 309 309 309 308 308 307 307 307 308 308 308 308 308 307 307 307 307 307 308 308 307 307 307 307 307 307 307 307 307 307 307 307 307 307 306 306 306 306 305 305 304 304
307 307 308 308 307 307 306 307 306 306 306 305 306 307 306 306 306 306 307 307 307 306 306 306 305 305 305 305 306 306 306 305 305 305 304 304 304 305 305 305 305 304 304 305 305 305 305 306 306 306 306 306 306 306 305 305 305 305 304 304 304 299
307 308 308 308 307 308 307 306 305 305 304 303 303 304 304 304 304 305 306 305 305 305 304 304 303 303 303 304 304 303 303 303 303 303 303 303 303 303 303 303 303 302 302 302 302 303 304 304 305 304 304 305 305 305 304 304 304 304 304 303 302 302
305 306 307 308 308 306 306 305 305 304 305 303 302 302 303 303 303 303 304 303 304 304 303 303 303 303 302 303 303 302 302 301 301 301 301 301 301 301 301 301 301 301 301 301 301 301 302 302 303 303 303 303 304 303 303 302 301 301 301 301 301 301
307 306 306 307 307 306 305 304 302 302 302 302 301 301 302 302 302 302 303 303 303 303 302 301 300 300 300 300 300 300 301 300 301 301 301 300 299 299 299 300 300 301 300 301 300 301 301 301 301 302 302 302 303 303 302 302 300 299 299 298 298 299
307 308 305 306 304 305 304 304 304 303 303 302 301 301 300 300 301 301 302 302 301 300 300 300 300 300 299 299 300 300 300 299 299 299 298 299 298 299 299 299 299 298 299 299 299 299 299 299 300 300 301 301 301 301 301 301 300 298 297 297 297 297
304 305 304 304 304 304 303 303 302 301 301 301 301 300 299 301 301 301 301 300 299 299 299 299 299 298 299 299 298 298 297 298 297 297 297 297 298 298 298 298 298 298 297 297 297 298 298 298 299 295 293 294 298 299 300 300 299 298 297 296 296 296
303 302 302 302 302 301 302 301 301 301 300 300 299 298 298 300 300 299 298 298 298 298 298 298 297 298 297 297 297 297 295 296 296 296 295 295 296 296 296 296 296 296 297 296 296 296 297 297 298 293 295 295 294 295 296 296 296 297 296 296 295 294
301 300 301 301 300 300 300 300 299 299 299 299 298 297 299 299 298 298 297 297 296 296 296 296 296 296 295 295 294 294 294 293 293 293 294 294 293 295 295 294 295 295 296 297 296 296 296 296 294 294 294 294 294 293 294 294 294 295 295 295 295 295
300 300 299 299 299 299 297 297 298 297 297 296 296 298 297 297 297 296 295 295 295 295 295 295 294 294 294 293 292 293 290 290 290 291 291 291 294 294 293 294 294 295 295 295 295 295 296 296 294 294 294 294 294 294 293 293 293 293 294 294 295 295
299 298 298 297 296 295 295 295 295 295 295 296 297 296 296 295 295 295 294 294 293 293 293 293 291 292 293 292 291 291 291 291 290 290 292 291 291 291 292 292 293 293 293 294 294 294 295 295 293 294 293 293 293 293 293 293 293 293 294 294 294 294
297 296 295 294 294 295 295 294 295 295 295 295 295 295 295 294 293 293 293 292 292 292 292 291 292 291 291 291 290 288 289 290 289 289 289 290 290 289 290 291 290 292 290 292 293 293 292 293 293 293 293 293 293 293 292 293 293 293 293 294 294 294
295 294 293 294 294 293 294 293 295 294 293 294 294 294 294 293 292 291 291 291 291 291 291 290 290 290 290 289 288 288 288 289 288 288 289 289 290 289 290 290 289 289 289 290 290 291 291 292 292 292 292 292 292 293 292 292 292 292 292 293 293 294
293 293 293 293 293 293 292 293 294 293 293 293 293 292 291 291 290 290 290 290 290 289 290 289 289 288 287 288 287 286 287 287 287 288 288 288 288 288 289 288 289 289 289 289 289 289 290 290 291 291 291 291 292 291 289 291 290 290 291 291 292 292
293 293 292 291 291 291 292 293 293 293 291 291 291 290 289 288 288 288 288 288 288 288 289 288 288 286 286 286 286 286 286 287 287 287 288 288 288 288 288 288 289 289 289 288 288 289 288 288 289 290 290 290 291 290 288 289 288 288 289 290 291 291
291 290 290 290 289 290 290 291 291 291 289 289 288 288 286 286 286 286 286 287 287 287 287 287 287 286 285 285 285 286 285 286 286 287 287 288 287 287 288 288 288 288 288 288 288 287 287 287 287 289 289 290 290 289 288 288 288 287 288 288 289 290
289 288 287 287 287 288 289 290 289 287 287 286 286 285 284 283 284 285 285 286 286 286 286 286 285 285 285 284 285 285 285 286 286 286 286 286 286 287 288 288 288 287 287 287 287 287 287 288 288 288 289 289 289 290 288 287 287 286 287 288 288 288
287 286 285 285 286 287 288 289 288 286 285 283 282 281 281 281 282 283 283 284 284 285 284 285 285 284 284 284 284 285 285 285 285 285 285 285 286 287 287 286 286 286 286 287 287 288 287 288 288 287 289 289 289 289 288 287 286 287 287 287 287 287
285 285 284 284 284 285 286 287 285 283 282 280 278 279 280 280 280 281 281 282 283 283 283 283 284 284 283 284 284 284 284 285 285 285 285 285 285 285 285 285 286 286 287 288 288 287 287 288 287 287 288 288 289 288 288 286 286 287 286 286 286 286
284 283 283 283 283 283 284 283 282 280 279 277 276 277 278 278 278 279 280 281 281 281 282 282 282 282 283 283 284 283 283 284 284 285 285 285 285 285 285 286 286 287 287 288 289 288 288 288 288 287 287 287 288 288 288 288 287 288 287 286 285 285
283 282 282 282 282 281 281 280 278 277 276 275 275 275 276 276 276 277 278 279 280 281 281 281 282 283 283 283 283 283 283 284 284 284 285 285 285 285 285 286 287 287 287 287 288 288 289 288 289 288 287 287 287 288 288 288 288 288 286 286 285 286
282 281 280 280 280 280 279 278 276 275 273 273 274 273 273 273 273 275 276 277 278 279 279 280 281 282 283 283 283 282 283 283 283 283 284 285 284 285 285 286 286 286 286 287 286 287 288 288 288 288 288 286 286 287 288 288 288 288 288 286 286 286
282 280 279 278 278 278 278 276 274 272 272 272 271 271 271 271 272 273 274 275 276 277 278 279 280 281 281 282 283 283 283 283 283 283 284 284 284 285 285 285 286 286 286 286 286 287 287 287 287 287 287 287 286 286 287 287 287 286 286 285 285 285
280 279 277 276 276 276 276 275 273 271 270 269 269 269 269 269 271 272 273 273 274 275 277 277 278 278 279 281 281 282 282 283 283 283 283 283 284 284 284 284 284 284 285 285 285 286 286 286 286 287 287 287 287 286 286 286 286 286 286 286 286 286
279 278 276 274 274 274 274 274 272 270 268 268 267 267 267 268 269 270 271 272 273 274 275 275 276 277 278 279 279 280 281 282 283 282 282 282 282 282 282 283 283 283 283 283 283 284 284 285 285 286 286 285 285 285 285 285 285 285 285 285 286 286
277 277 275 273 273 273 272 272 270 268 267 266 266 266 266 267 268 269 271 272 272 273 274 274 275 276 276 277 278 279 280 280 280 281 281 282 284 283 282 281 281 282 283 283 283 282 282 283 283 285 286 285 286 285 285 284 284 285 285 285 286 285
276 275 273 272 272 271 271 271 269 267 266 265 265 265 264 265 266 269 270 271 271 271 272 273 274 274 275 275 276 277 278 280 281 281 281 281 283 284 284 283 282 282 283 282 283 284 282 282 284 286 286 286 286 286 286 286 286 286 285 286 287 285
274 273 272 271 270 270 270 269 267 265 265 264 264 264 264 264 266 268 269 269 269 270 271 271 272 273 274 275 275 275 276 276 278 280 281 282 282 282 283 283 283 284 284 283 282 284 285 285 286 286 286 286 285 285 285 285 286 286 286 286 285 284
273 272 271 270 269 268 268 267 266 264 263 263 263 263 263 264 265 265 266 268 268 270 270 271 271 272 273 273 274 274 274 274 275 276 279 281 280 281 281 282 283 283 283 284 284 283 283 284 285 285 285 285 285 284 285 285 285 285 286 286 286 283
272 271 269 268 267 267 266 265 264 263 262 262 262 262 262 263 263 264 265 267 268 269 269 270 271 271 271 271 271 272 273 273 273 273 274 277 280 281 281 282 282 283 283 284 284 284 284 284 284 284 284 284 284 284 284 284 285 285 286 286 284 283
271 269 267 266 265 265 264 263 263 262 261 262 262 262 261 262 262 264 265 266 267 267 268 269 270 270 270 270 271 271 272 272 273 273 274 274 275 277 279 281 281 281 282 282 282 283 283 283 283 284 284 283 283 283 284 284 284 285 286 285 283 283
269 267 266 265 264 263 263 262 262 262 261 261 261 261 261 262 263 264 265 266 267 267 268 268 269 269 269 269 270 271 271 272 273 274 274 274 274 274 275 276 277 280 281 280 281 282 282 283 282 282 282 282 282 282 283 284 282 281 282 284 284 284
266 266 265 264 263 262 261 261 262 261 261 261 261 260 261 262 263 264 265 266 266 267 267 267 267 268 268 269 270 271 272 273 274 274 274 274 275 274 274 275 276 277 279 280 280 281 281 281 281 280 280 281 281 282 283 280 280 280 281 282 283 283
Wind_Speed
3 3 4 4 4 4 4 4 4 3 3 4 4 5 6 7 6 7 6 7 5 5 7 9 8 8 7 7 7 6 6 6 5 5 5 5 5 5 5 5 6 5 5 6 6 6 7 8 8 5 4 4 5 6 6 6 6 7 7 6 6 7
4 4 4 4 5 5 4 4 3 4 4 4 4 4 5 6 6 6 6 6 5 5 5 6 6 6 6 5 5 5 5 5 5 6 5 5 4 4 5 5 5 5 5 5 5 5 5 6 7 6 6 5 6 6 6 6 6 7 7 6 6 5
4 4 3 3 3 3 3 3 4 4 3 4 4 4 5 5 5 5 4 5 5 5 5 5 4 5 4 4 4 5 5 5 5 5 4 3 4 3 4 4 4 5 5 5 5 5 6 6 7 6 6 6 7 7 7 6 6 7 7 7 8 7
5 4 3 3 3 3 3 3 2 2 2 2 3 3 3 4 4 4 4 4 4 5 5 5 4 4 4 4 4 5 4 3 3 3 2 3 3 3 4 5 4 4 5 5 6 6 6 7 7 6 5 6 7 8 6 6 7 7 8 8 9 9
4 4 4 4 4 4 3 2 2 2 2 2 2 2 3 3 3 4 4 4 4 4 4 4 4 4 3 3 3 3 3 2 2 2 3 3 3 3 4 3 3 4 5 5 5 6 6 6 6 5 5 6 7 8 7 6 7 8 8 8 9 8
3 4 5 4 4 3 3 3 2 2 2 1 1 1 1 2 2 2 2 2 2 1 1 1 1 1 1 1 2 2 2 2 2 2 2 3 2 3 3 3 3 4 5 5 5 6 6 6 5 5 5 7 7 8 8 8 7 7 8 9 8 8
4 4 4 4 4 3 3 3 3 2 2 2 1 2 2 2 2 2 2 2 2 2 1 1 2 2 1 1 2 2 2 2 2 2 3 2 3 3 2 3 2 4 5 5 6 6 7 7 6 6 7 7 7 7 7 7 8 8 9 9 9 8
3 4 4 5 5 4 5 4 4 4 3 3 2 2 2 2 2 2 2 2 2 2 2 2 1 0 2 2 2 2 2 2 2 2 2 2 2 2 2 2 2 4 5 6 6 6 7 7 6 7 8 8 7 7 7 8 8 9 9 8 9 9
4 4 4 4 6 5 4 4 4 4 5 5 4 3 3 3 2 2 3 3 2 2 2 2 1 1 0 0 1 0 1 1 1 1 1 1 1 2 2 2 3 3 4 5 6 6 7 7 8 8 8 8 9 8 8 8 8 9 9 9 9 9
2 2 2 3 4 4 5 5 4 4 4 5 4 4 3 2 2 3 3 3 3 3 3 3 2 2 2 1 1 1 0 0 0 0 0 0 1 1 2 2 3 3 3 4 5 5 6 6 7 7 8 8 8 7 7 7 8 8 9 9 10 10
2 3 3 3 3 4 5 4 5 5 5 5 4 4 4 2 3 4 4 4 5 5 4 3 3 2 2 1 0 1 1 1 1 1 1 1 1 1 2 2 2 2 3 3 4 4 4 6 6 5 5 6 7 7 8 8 8 8 8 9 9 10
2 3 3 2 3 4 4 4 5 5 5 5 4 5 4 3 4 5 6 6 6 5 4 4 3 2 1 2 2 3 3 3 3 2 1 1 1 1 1 1 2 2 3 4 4 4 4 5 5 5 7 7 6 7 6 7 7 7 8 9 9 9
2 2 3 3 3 4 4 4 4 4 5 5 5 5 4 4 6 6 7 7 6 5 4 4 4 3 4 4 4 4 4 4 4 3 3 3 2 2 2 2 3 3 3 4 4 5 4 5 5 6 7 8 9 9 9 8 9 9 9 9 9 10
1 2 3 4 4 4 5 5 5 5 5 5 5 4 4 6 7 8 7 6 5 5 5 4 4 4 4 5 5 4 4 4 3 4 4 4 4 3 2 3 4 4 4 4 5 5 5 5 6 9 9 9 9 8 8 8 9 8 8 9 9 9
2 1 3 3 4 4 6 5 5 5 4 5 4 4 6 7 7 7 7 6 6 5 5 5 5 4 4 5 4 3 3 2 2 2 2 2 3 3 3 4 4 4 4 4 6 6 6 6 7 9 10 10 10 10 10 8 9 9 9 9 9 9
3 3 4 4 4 5 6 5 5 5 4 4 5 7 7 7 7 7 6 6 5 5 5 5 4 5 4 4 4 4 3 2 2 2 3 2 2 3 3 3 5 5 5 5 5 6 6 7 6 8 9 9 10 10 10 8 9 9 10 10 10 9
6 6 5 4 4 4 4 4 4 4 5 6 7 7 7 7 7 6 5 5 5 4 4 4 4 4 4 4 3 2 2 1 2 2 2 2 2 3 3 3 3 4 3 5 5 6 7 7 9 9 9 9 10 10 9 8 9 8 9 9 9 10
7 7 6 4 4 4 4 4 4 6 6 6 6 6 6 5 5 5 4 4 4 4 4 4 4 4 4 4 3 3 3 2 2 3 3 2 3 3 3 3 3 4 5 4 5 7 8 8 8 8 8 9 9 10 7 7 8 8 9 9 9 9
8 7 6 6 5 5 5 4 4 6 6 7 5 6 6 5 6 5 5 5 5 5 4 4 4 4 3 3 3 3 3 3 3 3 2 3 3 3 4 4 4 4 4 5 5 7 9 9 8 9 8 8 9 7 5 6 6 7 9 9 8 8
8 7 7 8 7 6 4 4 5 6 7 6 5 6 5 6 6 5 5 5 5 5 5 4 5 3 3 3 4 4 3 3 3 3 2 3 4 4 4 4 4 4 4 5 5 7 7 9 9 11 11 10 10 8 6 5 6 7 8 9 8 7
8 8 8 8 8 6 5 5 5 6 7 6 6 6 6 7 6 6 6 6 5 5 5 5 4 4 4 5 5 5 6 5 4 3 3 3 3 5 4 4 4 4 4 4 6 8 8 9 9 10 11 11 10 7 4 5 6 8 8 7 9 7
9 9 9 9 7 6 5 5 7 7 8 7 6 7 8 7 6 6 6 6 6 5 6 4 4 5 5 6 6 5 5 4 4 4 5 5 4 5 4 4 4 6 7 6 6 7 6 8 8 6 10 11 9 8 5 4 6 8 9 8 8 8
8 9 8 7 6 6 5 5 7 8 8 7 7 8 7 6 6 6 6 5 5 5 5 4 4 6 5 5 6 6 5 4 5 5 5 6 5 4 5 6 7 7 8 6 5 5 6 6 8 7 9 10 9 9 7 4 6 7 8 8 8 8
9 9 9 8 8 7 7 6 8 8 7 7 9 7 6 7 6 6 6 6 5 4 5 4 4 4 4 4 4 5 5 4 5 5 5 5 5 7 8 7 6 6 7 6 5 5 6 6 8 7 9 10 10 10 10 6 6 6 6 9 9 8
9 9 8 7 8 8 7 7 8 7 6 8 7 6 6 7 6 6 5 4 4 4 4 4 5 4 4 4 4 5 6 5 5 5 5 6 6 7 8 7 6 6 7 7 4 4 4 4 4 8 8 9 9 10 10 12 9 11 8 8 10 9
8 9 8 8 8 8 7 7 7 6 7 7 6 6 6 6 6 6 5 5 5 5 5 6 6 5 4 5 5 5 6 6 5 5 5 5 5 6 7 6 6 6 7 8 8 6 5 4 4 5 8 7 8 9 11 12 13 13 8 8 9 9
10 9 9 8 8 8 8 7 7 7 8 7 7 7 7 7 7 6 6 7 7 6 7 6 6 5 5 5 5 5 5 5 4 5 4 3 4 5 6 6 6 7 8 8 9 8 6 4 5 5 7 8 8 9 10 11 13 13 14 10 8 9
8 9 9 9 8 8 7 7 8 9 7 6 7 7 7 7 8 7 7 7 7 7 8 8 7 6 7 6 4 4 4 5 4 4 4 4 5 5 6 6 7 7 7 8 7 7 6 6 5 5 5 5 5 5 7 8 9 12 12 13 11 14
7 8 8 8 7 6 6 7 7 7 6 6 7 7 7 7 6 6 6 7 7 7 6 7 6 7 6 5 5 4 4 4 4 4 4 4 5 6 6 6 7 7 7 8 8 9 9 7 6 5 5 4 4 6 9 10 10 11 11 8 7 8
8 8 7 6 5 5 5 6 6 6 6 5 6 6 7 6 5 5 5 6 5 5 5 6 7 7 5 6 6 6 5 4 4 4 5 5 6 7 7 7 7 7 8 10 9 9 9 9 7 6 5 5 8 9 10 9 9 8 8 9 8 8
8 8 8 6 5 5 5 5 6 6 6 6 6 5 4 4 5 5 5 4 4 4 5 5 5 6 6 7 6 5 5 6 6 7 7 4 4 5 7 8 8 8 8 9 10 10 11 11 9 6 8 12 15 14 12 11 11 10 10 12 17 13
7 7 7 6 5 4 4 5 5 5 5 5 5 5 4 5 4 3 3 4 4 4 5 5 5 6 6 6 7 8 7 6 8 8 7 7 7 9 11 12 10 10 10 11 10 9 10 11 12 17 20 19 17 19 20 20 21 20 16 17 23 15
6 7 6 5 4 4 5 4 5 5 5 4 5 4 4 4 3 3 3 4 4 6 6 5 5 6 6 6 7 8 9 10 6 6 10 12 11 12 14 14 16 19 18 13 12 12 17 18 20 22 20 19 21 23 23 22 21 21 20 20 15 10
7 6 6 5 4 4 4 4 3 4 3 4 4 4 3 4 3 3 4 4 5 6 6 5 6 7 6 7 7 7 8 9 11 10 5 7 14 15 14 14 16 17 16 17 15 14 12 14 16 18 20 21 22 23 21 20 20 20 20 20 19 12
6 6 5 5 4 4 3 3 3 3 4 4 5 5 5 5 5 4 5 5 5 5 6 6 5 6 6 6 7 7 7 7 8 10 13 10 7 11 15 15 13 14 14 16 16 16 16 18 20 24 22 20 22 22 21 21 22 21 20 19 12 9
6 6 5 5 5 4 3 3 3 4 5 5 5 5 4 4 4 4 3 3 4 5 5 5 5 5 5 5 6 6 6 6 7 8 9 12 14 13 8 7 11 16 18 17 19 19 20 21 21 20 20 21 23 22 23 21 17 20 21 17 11 9
6 5 5 5 4 4 3 3 3 4 4 4 5 5 4 4 4 3 4 5 4 3 3 4 4 4 5 5 5 6 6 6 7 8 8 9 11 12 13 13 12 12 15 15 15 18 20 19 20 22 23 24 24 24 23 22 13 11 8 8 7 8
5 5 4 4 4 4 3 2 2 3 3 4 4 4 4 3 3 3 3 3 3 3 3 3 4 4 5 5 5 6 6 7 7 7 8 9 9 9 11 11 10 10 12 19 17 19 19 20 21 22 24 23 23 22 19 11 9 9 9 8 7 7
Wind_Direction
131 128 128 119 111 111 116 126 132 138 138 156 162 165 166 164 165 171 175 182 182 187 193 196 199 202 203 208 213 212 213 214 215 215 225 231 225 219 219 226 235 233 227 225 233 235 242 244 243 233 217 229 248 237 236 231 228 233 240 236 231 239
118 113 120 124 129 135 132 126 135 154 154 160 167 155 154 158 165 170 173 177 175 181 189 193 198 201 203 202 203 207 208 214 215 219 222 227 226 226 227 234 234 234 231 232 234 238 240 243 241 235 220 214 233 240 239 231 223 236 242 245 237 235
115 103 89 83 87 86 100 124 148 150 150 165 168 167 161 165 168 172 176 172 184 183 192 190 194 202 205 208 209 213 216 215 217 219 224 225 231 232 234 234 242 246 243 238 239 238 241 242 245 242 239 233 236 239 239 236 225 227 235 236 241 233
107 103 97 85 97 111 121 120 119 124 141 154 155 167 172 174 174 176 173 170 177 185 191 193 187 194 197 202 211 224 229 224 224 225 219 235 243 237 240 246 245 244 247 247 248 245 241 245 248 245 237 246 246 246 240 242 234 234 236 231 238 234
97 95 103 107 103 102 101 105 119 130 146 157 165 177 181 180 165 168 173 175 182 187 182 175 178 175 192 201 221 225 222 219 224 212 221 237 250 240 242 250 253 252 249 252 256 256 253 252 253 255 258 251 248 251 253 242 237 245 249 249 251 256
113 124 120 116 112 108 101 96 90 91 86 92 99 158 138 118 118 128 136 140 133 115 109 143 130 134 173 212 242 240 223 217 225 216 221 238 248 250 249 236 257 274 272 265 263 264 268 265 268 261 254 257 256 253 253 255 251 245 246 248 248 244
127 116 119 117 111 106 102 102 97 95 86 73 66 65 59 60 65 91 109 116 120 101 86 59 44 21 5 281 269 247 247 241 244 227 230 235 237 248 261 269 266 268 269 267 260 258 257 259 259 259 256 254 253 256 257 254 251 247 245 243 244 242
132 137 143 142 141 145 144 141 140 136 125 97 60 69 79 71 65 70 87 81 89 86 73 63 55 310 268 264 264 248 238 231 228 217 219 215 239 238 258 251 249 249 252 256 262 262 260 259 257 254 254 254 255 249 245 248 251 253 251 249 247 245
120 131 144 140 132 135 127 124 117 113 118 114 101 81 80 79 87 95 97 94 95 103 105 111 121 87 129 235 284 345 255 229 227 218 218 213 224 242 246 237 240 238 246 256 259 260 261 260 258 257 256 257 257 256 252 245 246 252 255 255 254 252
72 65 81 78 87 105 109 104 94 89 84 89 86 88 90 94 110 114 112 119 115 101 90 81 67 64 52 14 319 275 300 292 143 143 46 189 249 242 250 258 260 265 256 255 257 264 265 260 257 255 255 257 257 258 256 255 248 249 251 254 255 253
89 72 27 52 54 63 69 80 87 87 91 83 82 86 76 85 108 108 106 97 82 69 63 61 55 49 46 14 353 10 24 21 25 21 1 337 295 277 268 266 271 272 272 270 267 264 263 264 260 257 255 254 257 259 264 266 265 257 254 254 254 252
64 47 58 22 37 55 61 64 67 63 67 70 68 74 63 79 81 84 78 69 61 54 51 55 51 44 36 33 29 26 17 14 15 5 353 331 297 294 294 292 288 278 276 278 272 266 263 261 260 254 262 269 272 278 280 278 271 265 260 260 262 259
61 17 0 24 36 43 53 59 64 66 67 60 61 63 48 59 72 66 61 61 51 45 43 47 36 33 40 28 28 23 16 12 5 353 347 341 342 328 326 300 287 278 269 265 266 264 255 253 255 256 250 246 247 255 267 272 274 273 271 266 264 266
120 349 334 5 22 34 45 46 52 55 57 53 57 56 56 65 67 67 62 55 52 45 40 36 31 35 33 29 21 16 12 1 353 353 348 340 330 317 306 291 274 275 273 267 265 262 256 252 239 241 247 248 246 241 256 268 271 271 266 265 261 263
155 71 26 21 15 38 46 37 45 54 46 59 59 65 63 64 63 65 59 48 44 39 34 26 27 27 26 22 9 3 2 358 344 330 323 307 299 298 282 272 274 267 265 262 266 267 263 263 242 235 239 242 244 245 245 257 259 262 264 265 265 264
96 81 72 58 49 44 50 43 57 65 60 64 61 62 61 62 55 55 52 43 36 29 23 18 20 17 14 8 7 360 353 352 336 338 306 290 276 267 268 266 260 259 255 255 263 271 274 271 261 241 241 244 244 246 244 254 258 258 260 262 263 262
116 114 97 77 58 56 69 69 70 82 67 58 60 54 59 56 56 47 43 39 29 21 16 12 10 7 1 360 1 352 342 334 324 314 303 300 293 279 273 271 270 258 257 263 266 270 273 270 269 260 256 257 254 254 248 259 258 259 258 256 256 258
127 117 104 96 93 82 78 85 82 82 74 62 65 64 63 65 60 50 38 38 26 18 9 8 3 357 351 350 346 334 328 327 317 316 302 293 286 284 278 277 273 281 279 270 266 269 272 275 267 266 261 263 269 260 255 257 256 258 259 255 254 255
102 108 111 105 99 95 83 83 86 89 86 76 69 71 69 65 57 39 29 28 16 8 4 2 360 345 342 338 335 334 334 331 326 317 316 308 306 299 294 291 285 285 286 284 278 276 279 284 286 283 281 281 283 280 273 270 271 268 268 267 264 264
104 101 101 98 81 68 64 62 84 89 84 78 75 78 70 61 48 32 18 15 4 358 353 354 356 343 340 336 340 336 330 325 309 305 323 309 307 301 296 291 282 272 265 270 274 271 283 286 286 288 288 286 284 280 280 280 279 276 274 277 272 271
90 91 85 80 73 51 51 57 81 89 81 72 70 66 59 43 29 14 6 355 352 352 352 349 352 342 339 337 333 334 325 322 320 313 311 302 293 283 283 281 287 287 285 281 280 282 276 280 284 282 282 281 279 272 274 276 280 280 277 280 282 274
89 74 67 62 55 39 39 68 72 72 71 63 58 53 43 24 8 353 350 346 347 350 349 349 347 342 338 332 326 323 314 313 314 316 316 307 298 294 289 289 290 296 292 290 284 278 270 277 284 282 285 287 281 269 266 276 279 279 283 283 283 288
76 75 68 58 42 34 35 62 80 74 66 59 55 44 25 1 351 348 348 341 341 345 344 341 340 332 327 322 316 310 307 305 304 305 303 294 283 279 288 289 287 282 280 272 264 268 269 264 278 285 280 281 280 276 266 264 261 270 279 285 283 279
86 80 67 52 43 38 37 58 76 70 61 56 45 24 358 354 348 342 338 337 338 337 334 330 328 322 308 303 304 308 299 295 296 290 289 294 300 298 292 288 285 284 285 282 270 258 264 260 255 277 284 279 276 276 264 261 263 264 280 283 279 278
87 78 74 59 49 41 42 59 71 70 63 55 32 0 354 346 341 335 330 329 334 336 322 317 318 312 302 298 306 308 304 303 310 310 300 296 301 301 302 302 299 299 301 302 295 286 276 267 259 255 269 277 274 271 268 263 264 270 269 269 276 276
94 88 74 67 58 53 49 61 73 68 63 45 14 353 348 342 339 330 325 335 336 324 327 328 322 317 310 323 323 316 318 323 319 313 312 313 308 305 310 310 314 312 313 316 317 319 318 310 293 263 254 271 280 276 278 276 274 271 262 260 268 275
99 91 79 66 63 62 59 56 67 63 51 21 7 356 352 342 337 331 339 342 341 343 339 334 327 326 330 330 326 325 321 318 318 310 310 310 306 304 304 308 318 318 316 315 311 312 312 309 306 302 297 285 285 286 286 285 281 277 273 272 269 265
95 93 88 73 62 62 64 60 57 54 34 11 5 355 350 340 340 346 347 343 342 337 334 333 332 339 331 317 317 312 308 306 310 311 315 316 307 307 307 310 315 313 308 302 302 303 307 310 309 305 305 304 292 292 295 291 282 276 272 265 268 270
100 96 88 79 63 60 60 68 67 59 35 14 1 351 345 336 341 346 345 338 329 324 333 338 337 331 323 328 326 313 307 306 310 311 310 312 314 317 316 313 317 316 314 309 311 312 312 313 318 322 321 330 348 348 338 327 318 308 295 276 268 263
113 112 104 88 72 67 66 67 73 59 37 13 1 350 349 341 340 332 321 317 326 333 340 332 328 327 327 329 328 324 323 320 317 317 315 320 321 318 317 318 316 316 314 312 312 314 313 312 320 321 334 352 343 325 316 313 309 307 306 304 304 310
114 111 103 92 78 74 72 74 69 54 28 14 0 354 341 324 321 308 315 334 343 341 344 334 329 332 330 326 323 316 313 318 320 313 303 290 291 298 308 311 302 299 300 305 305 309 310 306 304 312 331 315 308 305 307 308 306 304 299 296 299 298
112 111 102 89 82 80 86 82 77 52 24 14 352 354 349 343 329 322 349 354 353 355 343 341 337 338 334 328 328 324 314 296 290 286 293 303 301 294 287 288 291 292 298 297 292 288 290 296 297 302 302 301 303 306 305 302 299 296 293 293 295 295
111 107 103 97 82 79 75 74 66 42 16 10 353 356 350 341 340 342 358 2 2 353 343 340 339 336 338 335 336 331 328 326 324 311 298 295 299 300 296 292 289 290 288 286 293 294 287 283 289 296 300 305 308 308 306 303 299 297 295 295 295 287
125 121 112 92 88 85 90 85 71 47 2 2 347 356 357 359 8 2 355 355 345 345 349 340 339 338 341 339 337 337 332 331 325 320 314 319 322 317 309 303 297 290 288 287 284 289 299 297 297 299 304 308 311 311 308 304 300 296 294 292 290 282
133 121 114 100 99 99 98 95 65 34 8 6 1 4 8 7 6 354 345 343 343 340 337 337 339 339 336 332 330 328 327 325 323 322 321 321 315 314 318 322 320 320 315 309 305 300 301 304 306 309 311 312 312 310 308 306 300 295 292 291 282 267
122 115 114 109 106 105 99 88 51 25 6 360 357 0 353 344 330 317 309 327 328 326 324 329 326 323 319 313 313 315 320 317 317 316 316 321 327 331 327 325 328 330 328 326 321 315 311 310 312 316 318 319 317 311 305 301 297 294 290 280 268 262
123 115 113 109 101 93 83 71 45 24 3 352 346 343 328 318 316 312 302 300 306 307 310 306 307 306 308 311 313 316 317 313 314 315 319 323 324 324 323 327 329 329 330 324 321 321 323 327 328 327 323 319 313 307 303 302 298 294 293 280 256 257
114 113 106 97 89 88 88 76 53 24 349 338 336 326 316 320 315 306 302 302 308 306 298 295 292 296 298 302 305 308 307 313 318 321 320 318 316 314 316 317 322 322 325 325 323 327 333 334 332 326 321 314 308 304 310 311 303 299 294 291 284 273